Jacksonville NAS, FL

3:43 PM EDT on April 25, 2017 (GMT -0400)
Jacksonville Naval Air Station

Weather History for KNIP - April, 2013

Change the Weather History Date:

Saturday, April 6, 2013

  Actual Average Record
Temperature  
Mean Temperature 60 °F -  
Max Temperature 69 °F 76 °F 84 °F (1997)
Min Temperature 52 °F 59 °F 48 °F (2007)
Degree Days  
Heating Degree Days 4    
Growing Degree Days 10 (Base 50)    
Moisture  
Dew Point 51 °F    
Average Humidity 73    
Maximum Humidity 90    
Minimum Humidity 51    
Precipitation  
Precipitation 0.00 in - - ()
Sea Level Pressure  
Sea Level Pressure 30.12 in    
Wind  
Wind Speed 12 mph (NNE)    
Max Wind Speed 15 mph    
Max Gust Speed 23 mph    
Visibility 10 miles    
Events      
Averages and records for this station are not official NWS values.
T = Trace of Precipitation, MM = Missing Value Source: NWS Daily Summary

Daily Weather History Graph

Daily Weather History Graph

Search for Another Location

Airport or City:

Trip Planner

Search our weather history database for the weather conditions in past years. The results will help you decide how hot, cold, wet, or windy it might be!

Date:

Astronomy

Apr. 06, 2013 Rise Set
Actual Time 7:09 AM EDT 7:48 PM EDT
Civil Twilight 6:45 AM EDT 8:13 PM EDT
Nautical Twilight 6:16 AM EDT 8:41 PM EDT
Astronomical Twilight 5:47 AM EDT 9:10 PM EDT
Moon 4:37 AM EDT (4/6) 4:29 PM EDT (4/6)
Length of Visible Light 13h 27m
Length of Day
12h 39m
Waning Crescent, 15% of the Moon is Illuminated
Apr 6
Waning Crescent
Apr 10
New
Apr 18
First Quarter
Apr 25
Full
May 2
Last Quarter

Hourly Weather History & Observations

Time (EDT) Temp. Dew Point Humidity Pressure Visibility Wind Dir Wind Speed Gust Speed Precip Events Conditions
12:53 AM 55.9 °F 50.0 °F 80% 30.04 in 10.0 mi North 15.0 mph - N/A   Mostly Cloudy
1:53 AM 55.9 °F 50.0 °F 80% 30.04 in 10.0 mi North 10.4 mph - N/A   Mostly Cloudy
2:53 AM 54.0 °F 50.0 °F 86% 30.04 in 10.0 mi North 11.5 mph - N/A   Partly Cloudy
3:53 AM 54.0 °F 51.1 °F 90% 30.03 in 10.0 mi North 10.4 mph - N/A   Partly Cloudy
4:53 AM 53.1 °F 48.9 °F 86% 30.06 in 10.0 mi NNW 10.4 mph - N/A   Scattered Clouds
5:53 AM 52.0 °F 48.0 °F 86% 30.08 in 10.0 mi NNW 10.4 mph - N/A   Partly Cloudy
6:53 AM 53.1 °F 48.9 °F 86% 30.09 in 10.0 mi North 11.5 mph - N/A   Partly Cloudy
7:53 AM 53.1 °F 48.0 °F 83% 30.10 in 10.0 mi NNE 12.7 mph - N/A   Partly Cloudy
8:53 AM 55.9 °F 48.9 °F 77% 30.13 in 10.0 mi North 10.4 mph - N/A   Partly Cloudy
9:53 AM 60.1 °F 51.1 °F 72% 30.14 in 10.0 mi NNE 9.2 mph - N/A   Scattered Clouds
10:53 AM 63.0 °F 51.1 °F 65% 30.15 in 10.0 mi NNE 11.5 mph - N/A   Partly Cloudy
11:53 AM 66.9 °F 48.0 °F 51% 30.15 in 10.0 mi NNE 13.8 mph 23.0 mph N/A   Partly Cloudy
12:53 PM 66.9 °F 48.9 °F 52% 30.15 in 10.0 mi NNE 15.0 mph - N/A   Partly Cloudy
1:53 PM 66.9 °F 51.1 °F 57% 30.14 in 10.0 mi NE 13.8 mph - N/A   Partly Cloudy
2:53 PM 68.0 °F 52.0 °F 56% 30.14 in 10.0 mi NE 10.4 mph - N/A   Scattered Clouds
3:53 PM 68.0 °F 52.0 °F 56% 30.14 in 10.0 mi NE 8.1 mph - N/A   Scattered Clouds
4:53 PM 69.1 °F 53.1 °F 57% 30.13 in 10.0 mi NE 9.2 mph - N/A   Scattered Clouds
5:53 PM 66.9 °F 54.0 °F 63% 30.14 in 10.0 mi NNE 12.7 mph - N/A   Scattered Clouds
6:53 PM 64.9 °F 53.1 °F 65% 30.15 in 10.0 mi NE 10.4 mph - N/A   Scattered Clouds
7:53 PM 63.0 °F 54.0 °F 72% 30.15 in 10.0 mi NE 11.5 mph - N/A   Scattered Clouds
8:53 PM 62.1 °F 55.0 °F 78% 30.16 in 10.0 mi NE 9.2 mph - N/A   Scattered Clouds
9:53 PM 61.0 °F 55.0 °F 81% 30.18 in 10.0 mi North 6.9 mph - N/A   Partly Cloudy
10:53 PM 61.0 °F 55.9 °F 83% 30.19 in 10.0 mi North 6.9 mph - N/A   Scattered Clouds
11:53 PM 61.0 °F 57.0 °F 87% 30.17 in 10.0 mi NNE 9.2 mph - N/A   Mostly Cloudy